CAPE
1139 891 428 537 71 0 0 6 20 27 43 84 64 30 55 71 5 0 5 66 119 185 270 684 619 821 848 787 694 640 758 947 998 1211 1238 966 1120 1314 1424 1699 1753 1927 1772 1943 1788 1676 1595 1732 1744
962 427 581 779 1 0 0 0 3 0 32 222 199 190 126 34 92 41 49 152 231 357 432 575 750 1081 1193 1237 1243 949 947 1229 1334 1245 1180 1292 1557 1625 1833 1888 1792 1762 1922 1827 1654 1632 1585 1617 1568
666 733 941 268 0 0 0 0 0 86 232 259 154 145 45 25 97 59 95 276 392 378 704 998 1276 1164 1165 1358 1470 1258 1108 1222 1321 1405 1454 1607 1742 1618 1817 1720 1609 1648 1753 1683 1612 1560 1553 1585 1541
631 626 310 2 0 25 0 0 0 144 371 303 102 6 212 67 112 106 313 462 504 507 970 1369 1427 1237 1229 1284 1396 1494 1272 1287 1268 1477 1655 1577 1624 1775 1742 1637 1700 1745 1564 1570 1457 1435 1500 1529 1630
308 78 0 0 39 168 22 22 86 232 477 257 143 134 212 313 247 235 412 518 534 831 1316 1483 1329 1522 1596 1462 1398 1304 1276 1306 1508 1620 1629 1667 1750 1777 1652 1673 1695 1559 1506 1532 1469 1355 1343 1205 1217
64 0 1 0 106 249 140 72 239 497 494 330 168 205 349 346 57 246 465 501 791 893 1200 1298 1431 1648 1616 1399 1537 1635 1742 1830 1737 1661 1743 1717 1671 1625 1618 1622 1570 1499 1493 1578 1481 1574 1532 1585 1427
19 0 0 46 130 177 196 161 515 555 372 258 256 186 351 365 162 356 425 618 930 1183 1191 1409 1584 1601 1516 1606 1490 1574 1541 1538 1767 1949 1940 1780 1672 1608 1521 1556 1451 1432 1544 1640 1809 1366 1212 1104 1293
0 0 1 41 75 32 345 537 615 486 354 392 365 128 213 433 306 387 423 656 905 999 990 1101 1427 1563 1555 1604 1474 1454 1568 1554 1733 2044 1862 1649 1526 1495 1584 1299 1165 1451 1415 1358 1625 1039 719 813 900
1 0 0 5 70 70 514 651 444 672 387 239 429 245 517 630 616 377 324 498 663 916 1035 1191 1308 1472 1632 1679 1516 1587 1612 1470 1865 1902 1872 1651 1255 1270 1371 1062 871 910 1125 1440 1231 983 854 893 1098
11 0 0 0 25 76 448 566 655 269 199 238 431 517 831 829 697 514 282 246 341 611 838 951 1247 1479 1543 1510 1540 1669 1537 1491 1585 1574 1284 1146 1124 1044 1101 784 1049 986 1066 1202 1121 965 996 1169 1109
7 0 0 0 0 112 210 251 395 59 92 138 166 361 871 827 822 700 403 326 327 475 763 1138 1021 1354 1310 1189 1251 1438 1260 1310 1386 1268 1132 851 1019 998 1028 1072 1074 907 1070 1253 1248 1010 1170 1112 1023
0 3 0 0 0 61 94 297 129 233 196 346 277 600 900 895 864 541 428 458 519 680 789 1105 1294 1437 1453 1403 1076 1227 1040 1066 997 954 870 785 864 887 986 797 860 926 1083 1015 931 922 1012 1048 884
0 0 0 0 0 21 99 200 148 212 290 428 436 671 755 815 877 606 537 514 521 522 573 785 1022 1186 1041 1034 1217 1204 1208 1044 927 823 714 729 853 935 1010 790 889 967 940 927 1062 1073 1054 1003 1053
0 0 3 11 7 4 62 134 207 212 422 496 429 471 642 766 941 955 882 627 515 374 412 575 688 903 956 832 1073 1084 1132 938 878 828 772 710 843 1063 974 836 927 861 872 945 909 852 920 846 816
0 0 0 27 9 14 86 110 141 277 444 589 518 627 786 889 968 987 907 789 693 521 525 512 642 746 838 871 948 897 903 953 1110 1091 1075 1012 966 1108 1179 718 875 703 718 713 875 857 784 869 833
0 3 0 18 0 13 108 26 155 485 496 600 643 695 810 907 935 1007 1002 854 759 725 559 710 840 901 956 999 1180 1215 966 1051 1133 1016 946 1016 1049 924 1029 891 692 590 600 710 712 654 625 550 412
0 0 0 32 0 9 64 31 181 499 517 525 650 771 900 910 952 956 1027 857 749 711 564 745 1001 952 846 923 1038 1220 1232 1266 1109 1034 1033 850 1005 1084 1000 994 613 651 621 525 471 479 444 280 247
0 0 1 20 28 23 47 91 135 277 433 339 486 712 778 748 737 806 781 838 703 663 654 706 1009 1114 889 791 1002 1186 1206 1231 1248 1224 1059 1016 1095 1145 913 732 697 739 422 183 61 21 66 120 240
0 26 22 32 36 60 89 112 70 139 200 207 263 351 486 485 432 473 462 597 520 569 664 697 850 979 989 871 979 1101 1175 1231 1227 1156 1270 1155 1118 1003 622 768 460 353 151 59 14 15 41 80 81
0 5 10 23 13 59 90 125 64 130 117 108 114 107 151 194 140 126 304 326 341 594 623 709 905 908 951 985 1012 1005 1064 1048 1191 1055 1013 1047 1125 1085 821 333 348 248 90 21 0 0 0 2 35
0 0 0 10 14 35 55 80 81 95 111 79 62 51 51 69 65 51 107 212 207 458 483 611 773 818 944 909 878 1004 946 854 736 751 971 1075 1102 934 620 396 263 141 9 0 0 0 0 0 0
0 0 0 0 4 1 57 5 46 57 73 106 99 94 75 70 78 71 83 132 189 237 350 569 624 733 824 773 897 1127 1141 690 612 379 312 571 787 779 662 249 15 0 0 0 0 0 0 0 0
0 0 0 0 4 20 44 12 16 55 43 96 116 102 96 79 91 99 90 93 135 194 182 315 435 529 761 881 1049 1004 1091 829 253 100 105 87 6 0 0 0 0 0 0 0 0 0 0 0 0
0 0 0 0 0 0 0 0 0 0 61 89 155 169 154 122 112 117 97 89 111 158 203 218 244 327 565 829 972 1089 1099 830 291 52 0 0 0 0 0 0 0 0 0 0 0 0 0 0 0
0 0 0 0 0 0 0 0 5 1 41 65 107 167 208 183 164 178 142 148 173 183 243 330 307 344 525 778 927 1218 1071 778 337 130 0 0 0 0 0 0 0 0 0 0 0 0 0 0 0
0 0 0 0 0 0 0 0 0 8 20 42 92 113 155 161 260 314 274 250 220 264 317 385 415 444 609 771 962 1079 1048 694 379 49 0 0 0 0 0 0 0 0 0 0 0 0 0 0 0
0 0 0 0 0 0 0 0 0 0 0 0 5 39 84 87 224 332 403 348 317 291 407 451 465 560 702 803 880 700 693 496 112 0 0 0 0 0 0 0 0 0 0 0 0 0 0 0 0
0 0 0 0 0 0 0 0 0 0 0 0 0 0 20 25 145 301 466 449 441 430 485 565 530 566 724 774 653 491 483 267 0 0 0 0 0 0 0 0 0 0 0 0 0 0 0 0 0
0 0 0 0 0 0 0 0 0 0 0 0 0 0 2 8 65 228 515 597 620 602 559 703 721 730 774 673 503 364 318 7 0 0 0 0 0 0 0 0 0 0 0 0 0 0 0 0 0
0 0 0 0 0 0 0 0 0 0 0 0 0 10 0 0 39 148 482 659 788 766 702 819 901 982 926 706 497 307 230 5 0 0 0 0 0 0 0 0 0 0 0 0 0 0 0 0 0
CIN
-207 -258 -300 -157 -64 0 0 -38 -61 -51 -56 -68 -39 -44 -81 -100 -22 -10 -97 -68 -59 -43 -17 -1 -1 0 0 -6 -18 0 -3 -28 -37 -10 -7 -23 -34 -23 -24 -17 -14 -4 -18 -1 -12 -18 -14 -5 -1
-229 -295 -212 -107 -13 0 0 0 -31 0 -52 -45 -50 -47 -102 -111 -121 -168 -129 -36 -45 -43 -14 -11 -2 0 0 0 0 -2 -6 -2 -5 -10 -13 -14 -15 -15 -7 -7 -6 -8 -1 -5 -17 -15 -10 -4 -4
-291 -212 -118 -82 0 0 0 0 0 -51 -41 -46 -63 -93 -111 -89 -108 -153 -129 -25 -22 -25 -5 -1 0 -1 0 0 0 -2 -10 -5 -9 -8 -10 -8 -3 -13 -6 -10 -12 -15 -10 -16 -18 -15 -8 -3 -3
-287 -245 -234 -2 0 -37 0 0 0 -59 -30 -54 -97 -46 -71 -114 -136 -142 -57 -16 -17 -13 -1 0 0 0 -2 0 0 0 -3 -5 -14 -5 0 -4 -8 -5 -7 -10 -11 -8 -22 -17 -17 -13 -7 -9 -3
-370 -320 0 0 -51 -51 -55 -95 -90 -67 -45 -61 -98 -80 -70 -31 -91 -116 -61 -33 -38 -6 -1 0 -1 0 0 0 0 -3 -5 -9 -2 0 -2 -3 -7 -9 -15 -17 -12 -20 -25 -15 -12 -18 -15 -23 -16
-260 0 -9 0 -76 -78 -92 -108 -84 -64 -75 -91 -106 -100 -41 -53 -177 -111 -56 -44 -21 -15 -4 -3 -1 -1 0 0 0 -2 -1 0 -3 -3 -3 -7 -15 -20 -22 -13 -13 -21 -19 -11 -9 -8 -11 -9 -12
-192 0 0 -50 -64 -80 -99 -115 -69 -90 -112 -130 -139 -129 -70 -62 -121 -92 -72 -42 -11 -1 -5 -2 -1 0 -2 0 -12 -9 -13 -12 0 0 -1 -9 -18 -19 -21 -16 -18 -20 -14 -9 -4 -9 -15 -13 -9
-9 0 -46 -98 -73 -88 -104 -95 -96 -104 -121 -130 -117 -159 -160 -95 -113 -86 -67 -32 -18 -23 -36 -27 -4 -3 -5 -5 -10 -14 -8 -5 -3 0 -5 -17 -22 -21 -12 -16 -28 -17 -14 -12 -5 -18 -29 -27 -18
-35 0 0 -71 -107 -113 -118 -98 -122 -104 -157 -127 -107 -157 -163 -116 -82 -121 -117 -50 -36 -24 -25 -19 -16 -10 -5 -2 -4 -5 -3 -7 0 -1 -4 -18 -40 -40 -28 -41 -51 -46 -27 -15 -17 -22 -25 -25 -18
-130 0 0 0 -113 -120 -136 -90 -125 -168 -178 -162 -158 -153 -109 -93 -97 -121 -161 -180 -140 -67 -39 -40 -21 -10 -10 -13 -9 -4 -8 -12 -16 -20 -29 -36 -44 -47 -46 -65 -45 -41 -29 -24 -25 -21 -24 -27 -32
-86 0 0 0 0 -110 -137 -124 -142 -183 -159 -183 -226 -254 -135 -110 -88 -91 -149 -180 -185 -136 -69 -37 -49 -28 -32 -42 -35 -25 -38 -33 -30 -38 -48 -53 -54 -58 -60 -53 -54 -50 -38 -34 -27 -37 -33 -36 -38
0 -109 0 0 0 -121 -133 -135 -159 -147 -131 -198 -227 -232 -168 -132 -116 -163 -180 -175 -159 -115 -88 -58 -38 -25 -25 -28 -48 -39 -49 -53 -55 -62 -65 -72 -66 -60 -60 -67 -54 -46 -45 -34 -37 -37 -35 -35 -50
0 0 0 0 0 -137 -162 -110 -126 -128 -168 -238 -228 -183 -179 -160 -132 -163 -159 -157 -158 -150 -142 -90 -65 -47 -54 -55 -42 -41 -46 -59 -63 -71 -81 -92 -74 -65 -58 -49 -56 -47 -51 -42 -28 -27 -29 -35 -38
0 0 -62 -117 -175 -189 -133 -120 -88 -128 -171 -194 -217 -206 -186 -168 -138 -120 -110 -140 -160 -178 -178 -148 -114 -82 -74 -81 -66 -69 -64 -72 -64 -71 -82 -88 -83 -68 -45 -47 -43 -45 -45 -41 -39 -44 -40 -44 -52
0 0 -5 -182 -170 -157 -145 -136 -122 -133 -172 -172 -183 -161 -138 -122 -113 -118 -125 -136 -143 -163 -159 -144 -116 -100 -87 -78 -72 -79 -76 -80 -67 -66 -70 -64 -45 -65 -44 -41 -36 -37 -56 -50 -51 -50 -58 -38 -40
0 -119 0 -187 -14 -196 -126 -108 -184 -195 -154 -138 -153 -145 -137 -126 -122 -98 -97 -112 -128 -115 -136 -114 -86 -83 -83 -73 -65 -66 -70 -65 -63 -63 -63 -60 -49 -50 -54 -51 -46 -58 -56 -55 -52 -52 -51 -64 -96
0 0 0 -181 0 -179 -164 -149 -223 -235 -187 -150 -134 -137 -134 -122 -110 -111 -105 -104 -114 -117 -120 -91 -69 -60 -67 -79 -76 -58 -48 -52 -51 -53 -40 -44 -49 -47 -42 -50 -63 -59 -56 -53 -53 -54 -62 -120 -147
0 0 -43 -101 -186 -220 -166 -160 -273 -296 -229 -202 -184 -151 -129 -141 -145 -128 -125 -115 -120 -123 -101 -94 -63 -61 -67 -82 -69 -46 -34 -34 -36 -33 -37 -39 -34 -32 -31 -50 -60 -52 -65 -124 -258 -298 -261 -209 -138
0 -118 -97 -104 -128 -165 -159 -149 -229 -303 -289 -268 -258 -249 -220 -211 -176 -169 -169 -130 -136 -129 -106 -100 -62 -65 -78 -71 -57 -45 -35 -31 -30 -34 -31 -32 -31 -35 -36 -44 -80 -101 -160 -224 -286 -323 -344 -310 -320
0 -83 -88 -102 -117 -127 -126 -138 -250 -273 -289 -309 -314 -341 -310 -259 -259 -264 -205 -201 -192 -146 -135 -128 -78 -65 -74 -77 -71 -62 -45 -44 -37 -39 -36 -37 -34 -37 -45 -118 -108 -151 -209 -277 0 0 0 -298 -329
0 0 0 -115 -104 -118 -119 -117 -192 -301 -293 -310 -330 -324 -312 -311 -299 -282 -280 -252 -258 -196 -193 -159 -108 -86 -83 -106 -98 -74 -73 -86 -75 -65 -37 -36 -41 -53 -71 -112 -127 -176 -334 0 0 0 0 0 -138
0 0 0 0 -87 -13 -124 -66 -141 -248 -288 -321 -325 -350 -315 -300 -310 -303 -294 -300 -286 -255 -226 -191 -158 -135 -133 -152 -115 -86 -67 -92 -104 -138 -158 -94 -71 -58 -58 -123 -162 0 0 0 0 0 0 0 0
0 0 0 0 -90 -112 -122 -59 -57 -217 -214 -253 -346 -371 -382 -331 -305 -303 -284 -297 -291 -260 -260 -234 -218 -199 -165 -157 -125 -120 -103 -110 -211 -248 -237 -261 -163 0 0 0 0 0 0 0 0 0 0 0 0
0 0 0 0 0 0 0 0 0 0 -93 -136 -288 -356 -374 -362 -331 -278 -280 -285 -283 -262 -261 -250 -271 -254 -217 -194 -159 -132 -121 -156 -239 -305 0 0 0 0 0 0 0 0 0 0 0 0 0 0 0
0 0 0 0 0 0 0 0 -178 -32 -133 -124 -130 -245 -293 -365 -333 -290 -319 -294 -285 -287 -274 -289 -292 -281 -266 -226 -209 -173 -161 -186 -235 -287 0 0 0 0 0 0 0 0 0 0 0 0 0 0 0
0 0 0 0 0 0 0 0 0 -130 -125 -198 -215 -269 -287 -351 -350 -297 -303 -257 -276 -268 -272 -298 -320 -302 -279 -243 -228 -220 -192 -210 -234 -319 0 0 0 0 0 0 0 0 0 0 0 0 0 0 0
0 0 0 0 0 0 0 0 0 0 0 0 -127 -244 -280 -332 -368 -356 -333 -286 -251 -278 -289 -315 -336 -321 -307 -289 -267 -287 -281 -275 -298 0 0 0 0 0 0 0 0 0 0 0 0 0 0 0 0
0 0 0 0 0 0 0 0 0 0 0 0 0 0 -269 -364 -399 -391 -374 -331 -287 -291 -310 -325 -323 -339 -328 -325 -342 -344 -318 -319 0 0 0 0 0 0 0 0 0 0 0 0 0 0 0 0 0
0 0 0 0 0 0 0 0 0 0 0 0 0 0 -208 -330 -363 -392 -402 -383 -332 -319 -343 -333 -335 -344 -366 -374 -368 -377 -351 -415 0 0 0 0 0 0 0 0 0 0 0 0 0 0 0 0 0
0 0 0 0 0 0 0 0 0 0 0 0 0 -159 -7 0 -373 -404 -401 -355 -409 -360 -378 -352 -352 -351 -386 -414 -391 -407 -365 -381 0 0 0 0 0 0 0 0 0 0 0 0 0 0 0 0 0
Wind_Speed
24 22 17 11 8 5 16 22 24 24 23 15 20 24 22 5 9 13 27 28 31 32 31 33 33 33 33 33 34 33 33 33 33 33 32 31 29 28 27 25 25 23 23 22 23 22 9 10 11
24 23 14 12 19 4 4 23 22 21 25 23 7 9 9 15 10 12 25 29 28 31 32 32 33 34 34 34 34 34 33 34 34 32 31 30 29 28 26 24 22 21 20 20 18 15 11 10 10
25 20 13 13 26 8 12 21 26 28 28 22 20 8 12 16 12 21 29 32 29 32 32 33 33 34 33 33 33 34 34 34 32 31 30 29 28 26 24 22 21 20 18 17 15 12 11 10 10
21 16 12 9 19 5 6 27 28 29 22 21 26 14 8 5 16 24 28 25 34 33 33 33 33 33 33 33 33 33 33 31 30 29 28 27 26 24 22 21 20 18 18 16 14 12 11 11 11
20 16 7 12 15 7 5 25 27 24 21 23 22 16 3 14 9 22 26 30 30 33 32 32 32 32 32 32 32 31 30 28 28 27 26 25 24 23 21 20 18 17 16 14 12 10 10 10 11
17 17 3 20 9 8 10 25 19 14 24 25 18 16 9 19 19 19 21 24 26 30 31 31 31 31 30 30 30 29 28 28 27 26 25 24 22 21 19 17 16 15 13 12 11 10 10 10 10
18 18 19 23 13 15 18 25 22 24 26 26 22 17 28 27 21 20 22 22 24 27 29 29 30 30 30 30 29 27 26 26 25 24 23 22 20 19 17 15 15 13 12 11 10 9 9 10 11
20 17 23 21 26 20 23 22 21 24 20 27 27 24 26 31 24 21 22 23 24 25 28 29 30 29 29 27 26 25 24 24 23 22 21 20 19 17 16 14 13 12 11 11 11 12 13 18 15
20 18 20 21 23 19 24 22 24 21 26 23 24 23 29 29 25 24 25 27 28 29 29 29 29 28 26 25 25 24 23 23 22 21 20 19 17 16 14 13 11 11 11 11 12 10 17 20 20
20 18 19 19 21 23 24 23 24 23 26 24 23 25 29 28 27 27 27 28 29 29 29 28 28 28 27 26 25 24 23 21 20 19 18 16 15 14 12 12 11 10 10 10 10 10 14 20 21
17 15 18 17 21 21 24 24 21 27 23 23 25 28 30 30 29 29 30 29 30 30 29 28 28 27 26 25 24 23 21 20 19 18 17 15 14 13 12 11 10 10 10 11 12 13 14 15 19
20 20 20 14 20 22 24 24 23 23 19 22 25 28 30 31 31 32 31 30 30 30 29 28 27 26 26 24 23 22 20 19 18 17 16 15 14 13 12 11 10 10 10 9 10 10 10 9 9
24 17 15 11 21 22 23 24 22 22 21 23 26 28 29 30 30 31 30 29 30 30 29 28 27 26 25 24 21 20 20 19 17 16 16 15 14 14 13 11 10 10 9 9 9 9 8 6 6
19 8 6 5 5 21 24 24 23 22 23 25 27 29 29 30 30 31 30 29 29 29 28 27 26 25 24 22 21 19 19 18 17 16 15 15 14 14 14 12 11 9 8 8 7 6 6 5 4
5 5 5 5 13 21 26 23 23 22 24 27 28 28 27 28 29 30 29 28 28 28 27 26 26 25 24 22 20 18 18 18 16 16 15 14 12 12 12 12 9 9 8 7 6 6 6 6 9
7 7 4 26 25 25 27 21 22 23 24 26 28 28 27 26 27 28 28 28 27 26 26 26 24 24 22 21 20 19 18 17 16 15 14 13 14 13 11 10 9 7 7 8 9 9 8 9 10
20 29 17 21 30 26 25 18 24 22 23 25 27 28 27 26 26 27 27 26 25 25 25 25 23 22 21 22 20 19 17 16 15 13 12 12 10 10 10 6 6 7 9 12 13 12 12 12 14
31 31 21 26 30 29 28 21 20 21 22 24 26 25 26 27 28 25 25 26 24 23 23 23 22 23 21 19 20 19 18 16 14 13 13 11 8 6 6 7 8 9 12 13 15 15 15 13 14
7 32 25 16 17 26 26 24 19 22 22 23 23 24 24 24 26 25 23 23 22 22 23 23 22 22 19 20 18 17 16 13 10 8 6 5 5 6 8 8 10 11 13 15 16 16 16 16 16
8 18 33 17 18 15 27 27 24 22 23 23 22 22 22 24 23 22 24 21 23 23 23 22 23 23 21 18 13 7 8 7 7 7 6 6 6 6 7 8 9 10 13 16 18 17 16 16 17
11 21 14 30 11 10 14 20 5 14 18 17 20 19 20 19 19 19 19 23 21 21 21 21 21 22 21 16 7 6 9 11 10 8 8 8 8 8 8 8 9 10 12 14 15 15 16 16 16
11 15 10 10 7 22 10 29 7 7 13 12 18 20 20 20 18 20 20 19 21 23 20 20 19 20 18 14 12 10 8 8 9 10 10 9 9 9 8 9 10 10 11 13 14 14 15 16 16
24 15 12 9 11 20 21 27 21 7 11 15 20 21 17 17 15 15 18 21 21 20 20 18 17 18 15 13 12 10 5 6 9 9 10 10 10 10 10 10 11 11 11 12 13 14 14 14 15
13 14 15 16 22 22 12 10 16 10 16 21 17 23 23 20 19 19 20 19 20 18 19 19 17 16 14 13 12 9 6 4 6 7 8 9 9 10 9 10 10 11 11 12 12 12 14 14 14
21 20 27 26 25 36 25 15 16 22 19 23 19 21 24 21 22 24 18 18 16 17 20 20 19 21 19 17 14 12 9 6 4 5 6 7 8 9 8 8 9 10 11 11 11 12 13 13 13
26 25 28 30 29 28 23 28 24 34 38 34 38 30 16 19 24 23 22 23 22 21 24 20 19 22 19 17 14 11 9 7 4 2 3 5 5 7 7 8 9 10 10 11 12 13 12 11 11
28 33 26 32 29 33 27 35 32 19 21 36 37 28 19 23 22 23 22 24 23 24 27 24 21 20 18 16 14 11 9 5 3 0 2 3 5 6 6 7 8 9 11 12 12 13 13 12 11
35 24 32 30 36 39 32 30 28 14 9 13 37 25 20 20 20 21 20 22 26 29 28 22 23 23 18 18 17 14 12 7 5 1 2 3 3 6 6 6 7 8 11 12 13 13 14 14 12
37 37 32 26 29 35 37 34 17 17 14 12 8 25 14 17 21 22 20 22 26 27 28 29 26 24 22 20 19 17 14 10 7 4 3 3 4 5 7 7 8 9 11 12 14 14 15 15 14
43 42 36 42 39 32 33 35 13 11 24 20 16 5 7 10 18 22 17 18 18 22 23 26 25 22 22 20 20 18 15 12 10 6 5 5 5 6 7 7 8 9 12 14 13 15 15 15 15
Wind_Direction
123 129 142 162 197 198 167 153 135 104 124 185 157 138 75 260 223 54 154 157 150 144 149 138 128 122 117 117 118 116 110 110 112 123 117 120 117 119 120 114 108 110 102 102 93 99 198 180 173
115 113 151 159 130 329 272 145 79 157 151 155 197 200 207 178 203 174 165 157 160 151 145 143 132 124 116 115 113 113 113 117 115 118 119 123 120 118 123 125 126 130 123 117 125 145 179 196 188
119 132 161 158 69 351 20 159 140 134 131 160 164 215 199 176 182 174 147 151 159 148 145 140 135 127 116 115 112 118 122 123 120 120 125 124 127 124 126 129 129 131 134 137 147 162 181 199 206
132 156 176 334 30 298 269 107 108 122 147 148 101 173 196 210 185 171 151 171 134 142 138 138 133 130 130 127 124 127 128 124 119 121 125 125 122 123 132 135 132 132 121 135 139 152 175 222 230
146 160 267 3 5 209 233 97 119 147 155 117 147 84 24 204 69 93 103 113 113 139 136 137 133 132 128 126 121 122 125 119 121 125 125 125 123 125 128 131 129 132 133 131 144 165 177 195 217
162 165 129 48 350 199 193 131 116 175 140 114 85 70 217 88 93 94 97 104 107 125 139 138 131 125 123 122 123 123 122 127 129 125 122 120 118 121 130 142 145 143 142 140 154 167 197 197 193
166 169 158 140 162 170 163 142 145 135 123 127 95 73 129 119 104 99 103 103 107 118 124 132 136 133 131 130 126 124 121 123 124 125 126 122 120 119 124 122 138 142 152 158 169 175 168 196 208
171 185 137 157 126 156 148 149 141 133 155 114 115 116 124 135 112 103 105 108 111 117 128 133 141 141 136 134 128 125 124 126 127 128 128 129 133 135 136 146 150 163 166 192 209 228 243 300 275
171 112 115 117 116 171 143 137 136 139 115 149 139 126 129 120 113 111 113 121 127 141 146 146 143 139 136 139 144 142 140 139 140 144 139 142 142 142 141 140 149 166 173 175 228 187 24 328 335
177 91 140 133 132 141 134 130 130 135 120 147 102 101 118 121 122 124 130 132 139 143 150 151 153 154 152 153 156 154 153 150 147 149 147 138 142 149 137 139 151 133 126 101 112 110 55 355 344
238 267 127 121 142 130 137 128 141 121 141 143 124 121 127 130 135 139 144 144 149 154 161 160 159 159 157 158 158 158 156 155 153 153 156 158 157 157 158 147 129 122 112 97 84 72 60 56 16
248 220 183 117 138 130 140 134 137 137 158 126 123 127 130 137 144 152 152 154 158 162 163 163 163 164 164 163 163 163 162 162 161 161 160 163 166 167 169 146 141 130 128 127 117 115 115 97 82
219 278 235 73 133 131 125 145 149 152 116 111 122 131 137 144 149 158 160 165 166 168 171 170 167 170 170 168 166 166 167 165 165 164 168 166 173 179 179 164 156 141 135 127 128 112 115 121 101
272 328 45 303 63 195 130 159 144 160 123 127 135 142 145 151 154 160 167 166 167 169 170 169 168 169 166 166 165 164 165 166 167 170 173 174 177 185 190 185 171 154 135 120 125 146 140 143 120
344 354 282 259 233 206 147 178 173 142 136 142 148 151 152 158 161 163 161 161 162 168 165 166 168 167 167 167 168 167 170 171 175 183 183 180 177 180 184 187 166 154 134 142 100 85 86 80 55
278 279 107 211 204 182 175 176 179 139 142 152 159 160 162 161 163 169 171 170 166 164 165 164 164 167 169 169 170 174 175 179 182 180 179 176 185 185 180 175 160 111 87 62 48 47 51 44 35
238 167 208 224 202 199 196 203 167 144 148 155 161 167 169 169 171 173 172 171 167 167 167 168 164 163 168 173 175 177 179 174 174 173 174 176 161 161 168 135 120 59 39 25 27 32 28 24 16
173 176 234 160 207 176 189 207 143 147 150 156 165 168 172 177 180 175 175 175 170 168 168 169 167 171 169 168 175 181 186 185 181 184 182 173 148 77 83 74 63 40 29 23 18 15 16 21 18
214 173 161 247 258 226 180 216 155 155 155 161 165 170 173 177 182 179 174 172 170 168 169 170 169 170 163 169 168 171 179 168 161 151 127 104 90 59 37 45 33 21 17 11 9 9 12 16 18
201 165 180 257 266 257 249 236 202 166 169 166 164 167 169 175 173 171 173 169 170 169 169 167 172 171 169 163 148 98 115 109 67 68 85 90 103 80 70 61 44 30 14 7 2 8 11 15 16
235 174 176 188 263 287 292 287 280 169 173 168 175 176 174 168 164 166 165 170 169 168 166 167 167 169 168 157 117 49 31 24 35 48 51 62 70 72 68 61 38 28 19 19 17 15 14 16 21
220 244 213 256 225 189 265 217 190 185 180 183 186 184 183 180 174 175 172 171 171 174 169 166 165 167 164 156 148 133 110 76 63 53 44 51 46 54 57 50 41 32 35 25 19 23 21 19 20
252 248 250 247 252 267 268 270 286 272 196 200 195 193 190 188 184 181 179 179 176 173 173 171 168 170 168 164 160 150 110 56 32 37 39 51 53 51 57 52 43 47 36 28 28 27 28 29 29
249 253 263 270 263 230 207 219 209 266 198 202 197 197 194 191 188 186 182 179 180 176 176 175 174 176 174 172 170 166 147 86 50 46 55 60 48 41 42 45 48 44 39 36 38 38 31 30 32
245 247 254 262 263 246 250 273 238 274 199 202 198 197 195 191 189 187 183 184 189 187 182 179 178 180 177 176 174 173 167 148 113 91 76 56 39 29 45 46 51 39 43 45 39 31 23 24 26
243 244 251 258 264 269 276 256 213 215 229 223 237 223 192 192 191 190 189 188 186 186 184 182 183 185 182 180 179 176 171 163 150 97 55 56 34 30 44 52 47 41 39 31 22 15 16 18 19
246 249 256 262 271 269 276 259 280 287 238 227 226 219 201 196 191 190 190 192 191 189 189 189 189 189 189 190 189 188 185 191 179 116 352 357 2 13 42 41 36 31 24 17 14 10 9 11 13
248 249 254 259 261 263 271 275 277 289 212 217 247 207 206 195 189 188 189 189 191 193 195 197 195 196 197 196 196 196 197 201 200 259 291 328 358 -0 10 15 19 19 11 10 8 3 1 0 1
244 246 254 262 263 264 268 274 281 288 290 284 242 210 192 181 183 183 184 186 188 191 192 195 196 198 200 201 200 200 202 205 203 234 269 302 328 337 341 348 357 360 358 1 359 358 355 356 356
245 247 247 251 257 268 272 270 299 297 292 288 304 274 183 186 179 181 181 185 188 191 192 196 199 204 208 209 208 210 212 212 217 231 270 292 304 322 329 337 340 345 349 350 356 354 354 354 351